Armadillo (44352 NORAD) Tracking and Keplerian Element Data

This shows tracking and keplerian element data for the satellite.

Feedback or suggestion? Click here.




ElementValue
Catalog44352
NameArmadillo
Epoch Orbit1713
Epoch Day290.88689388
Epoch Year2019
RAAN175.0995
Inclination28.5332
Eccentricity0.0380471
Argument of Perigee238.4023
Mean Anonmoly117.8895
Mean Motion14.98879064
Decay Rate9.574E-05
L11 44352U 19036P 19290.88689388 .00009574 00000-0 14715-3 0 9992
L22 44352 28.5332 175.0995 0380471 238.4023 117.8895 14.98879064 17131

Live tracking and technical data element details for Armadillo (NORAD 44352). Armadillo can be tracked NOW for your location showing map with azimuth and elevation plus other details from your city location.

Track the satellite on the map from your city or location and see movement details for azimuth, elevation, latitude, longitude, range, height, and movement on the map or in text.







IsCatalogInMostPopularTable: catalog: 44352, numindb: 13
Update: records affected: 1



GetName: 44352 Armadillo

Hit Count: updated at: Tue, 22 Oct 2019 23:30:44 GMT